Location: ??????
(55.7522°N, 37.6156°E)
Time: 17:51:28
(UTC+00:00)

Cosmos 304 Rocket - Pass Details

Date: 14 June 2025
Orbit: 669 x 678 km, 74.0° (Epoch: 12 July)

Event Time Altitude Azimuth Distance (km) Brightness Sun altitude
Exits shadow 23:22:37 - 223° (SW) 2,256 5.8 -7.4°
Reaches altitude 10° 23:23:01 10° 224° (SW) 2,105 5.7 -7.4°
Maximum altitude 23:27:41 58° 303° (WNW) 795 4.2 -7.1°
Drops below altitude 10° 23:32:24 10° 23° (NNE) 2,125 8.1 -6.8°
Sets 23:34:45 0° 28° (NNE) 3,045 9.9 -6.6°
